Tracking 18784 objects as of 18-August-2017
HD Live streaming from Space Station
objects crossing your sky now

COSMOS 1481 DEB

Track COSMOS 1481 DEB now!


NORAD ID: 14192
Int'l Code: 1983-070E
Perigee: 2,242.9 km
Apogee: 37,684.3 km
Inclination: 67.7 °
Period: 708.8 minutes
Semi major axis: 26334 km
RCS: 2.531 m2 (large)
Launch date: July 8, 1983
Source: Commonwealth of Independent States (former USSR) (CIS)
Launch site: PLESETSK MISSILE AND SPACE COMPLEX (PKMTR)

Note: This is SATELLITE DEBRIS
Your satellite tracking list
Your tracking list is empty





NASA's NSSDC Master Catalog

Two Line Element Set (TLE):
1 14192U 83070E   17229.40091315 -.00000742 +00000-0 +00000-0 0  9993
2 14192 067.7276 081.4273 6729057 357.2122 217.3077 02.03148179174090
Source of the keplerian elements: AFSPC